GW4262 Weather Reports


time (UTC)temp
C
wind
direction
speed
KPH
gust
KPH
rain 1hr
cm
rain 24hr
cm
rain mn
cm
humidity
%
barometer
mb
20260508184518 19 288 1.6 3.2 0.00 0.00 0.00 44 1015.7
20260508183026 20 124 3.2 8.0 0.00 0.00 0.00 43 1015.8
20260508181521 20 109 1.6 9.7 0.00 0.00 0.00 42 1016.0
20260508180026 20 52 1.6 4.8 0.00 0.00 0.00 42 1016.2
20260508174510 20 133 1.6 6.4 0.00 0.00 0.00 40 1016.3
20260508173012 19 271 1.6 4.8 0.00 0.00 0.00 38 1016.6
20260508171518 20 28 0.0 4.8 0.00 0.00 0.00 30 1016.8
20260508170024 19 88 1.6 6.4 0.00 0.00 0.00 37 1017.0
20260508164528 20 294 1.6 8.0 0.00 0.00 0.00 35 1017.3
20260508163012 19 264 1.6 9.7 0.00 0.00 0.00 37 1017.5
20260508161516 18 90 1.6 4.8 0.00 0.00 0.00 34 1017.6
20260508160025 18 246 0.0 4.8 0.00 0.00 0.00 43 1017.8
20260508154526 18 140 3.2 6.4 0.00 0.00 0.00 37 1018.0
20260508153037 18 166 1.6 4.8 0.00 0.00 0.00 40 1018.1
20260508151515 17 239 0.0 4.8 0.00 0.00 0.00 41 1018.0
20260508150038 17 269 1.6 4.8 0.00 0.00 0.00 47 1018.1
20260508144525 17 121 0.0 4.8 0.00 0.00 0.00 47 1018.3
20260508143025 16 274 1.6 6.4 0.00 0.00 0.00 50 1018.4
20260508141530 16 167 0.0 4.8 0.00 0.00 0.00 44 1018.3
20260508140024 15 13 1.6 4.8 0.00 0.00 0.00 42 1018.3
20260508134520 14 255 0.0 6.4 0.00 0.00 0.00 50 1018.3
20260508133024 13 232 1.6 4.8 0.00 0.00 0.00 54 1018.3
20260508131525 12 231 3.2 4.8 0.00 0.00 0.00 58 1018.3
20260508130013 11 238 1.6 3.2 0.00 0.00 0.00 63 1018.2
20260508124520 10 256 0.0 0.0 0.00 0.00 0.00 79 1018.2
20260508123004 8 256 0.0 0.0 0.00 0.00 0.00 83 1018.1
20260508121508 7 256 0.0 0.0 0.00 0.00 0.00 89 1018.1
20260508120028 -17 0.0 0.0 0.00 0.00 0.00 1017.9
20260508114529 -17 0.0 0.0 0.00 0.00 0.00 1017.6
20260508113031 -17 0.0 0.0 0.00 0.00 0.00 1017.3
20260508111530 -17 0.0 0.0 0.00 0.00 0.00 1017.1
20260508110030 -17 0.0 0.0 0.00 0.00 0.00 1016.9
20260508104529 -17 0.0 0.0 0.00 0.00 0.00 1016.7
20260508103029 -17 0.0 0.0 0.00 0.00 0.00 1016.3
20260508101526 -17 0.0 0.0 0.00 0.00 0.00 1016.1
20260508100035 -17 0.0 0.0 0.00 0.00 0.00 1016.0
20260508094528 -17 0.0 0.0 0.00 0.00 0.00 1016.0
20260508093035 -17 0.0 0.0 0.00 0.00 0.00 1015.9
20260508091517 6 256 0.0 3.2 0.00 0.00 0.00 90 1015.8
20260508090019 6 256 0.0 0.0 0.00 0.00 0.00 90 1015.8
20260508084522 6 256 0.0 0.0 0.00 0.00 0.00 89 1015.7
20260508083024 6 256 0.0 3.2 0.00 0.00 0.00 88 1015.6
20260508081512 6 256 0.0 3.2 0.00 0.00 0.00 89 1015.6
20260508080029 7 256 0.0 3.2 0.00 0.00 0.00 88 1015.5
20260508074520 7 256 0.0 3.2 0.00 0.00 0.00 88 1015.4
20260508073026 7 256 0.0 3.2 0.00 0.00 0.00 86 1015.2
20260508071511 7 256 0.0 3.2 0.00 0.00 0.00 84 1015.0
20260508070020 8 256 0.0 3.2 0.00 0.00 0.00 83 1014.9
20260508064536 8 256 0.0 1.6 0.00 0.00 0.00 80 1014.8
20260508063030 9 239 0.0 3.2 0.00 0.00 0.00 78 1014.8
20260508061532 10 141 0.0 3.2 0.00 0.00 0.00 74 1014.6
20260508060011 11 140 0.0 3.2 0.00 0.00 0.00 70 1014.6
20260508054532 12 137 0.0 3.2 0.00 0.00 0.00 67 1014.6
20260508053020 12 186 1.6 6.4 0.00 0.00 0.00 59 1014.6
20260508051530 12 42 3.2 6.4 0.00 0.00 0.00 66 1014.4
20260508050028 12 22 1.6 6.4 0.00 0.00 0.00 64 1014.4
20260508044512 13 101 0.0 3.2 0.00 0.03 0.00 61 1014.1
20260508043020 13 159 1.6 8.0 0.00 0.05 0.00 61 1013.8
20260508041524 13 360 1.6 11.3 0.00 0.08 0.00 65 1013.7
20260508040040 12 5 1.6 6.4 0.00 0.15 0.00 67 1013.9
20260508034538 12 5 0.0 6.4 0.00 0.15 0.15 71 1014.0
20260508033017 11 92 1.6 3.2 0.00 0.15 0.15 77 1013.9
20260508031521 10 155 1.6 8.0 0.00 0.15 0.15 74 1014.0
20260508030024 10 242 1.6 3.2 0.00 0.15 0.15 79 1014.0
20260508024530 10 276 0.0 3.2 0.00 0.15 0.15 77 1013.8
20260508023026 11 339 0.0 3.2 0.00 0.15 0.15 74 1013.6
20260508021532 12 117 1.6 3.2 0.00 0.18 0.15 71 1013.3
20260508020022 12 127 1.6 6.4 0.00 0.18 0.15 70 1013.2
20260508014524 12 161 0.0 11.3 0.00 0.20 0.15 68 1013.0
20260508011517 13 99 1.6 4.8 0.00 0.23 0.15 65 1012.7
20260508010026 13 20 1.6 14.5 0.00 0.33 0.15 61 1012.4
20260508004507 13 340 1.6 9.7 0.00 0.38 0.15 61 1012.2
20260508003009 14 32 0.0 6.4 0.00 0.41 0.15 62 1012.1
20260508001514 14 46 3.2 8.0 0.00 0.56 0.15 60 1011.9
20260508000017 15 10 4.8 16.1 0.00 0.69 0.15 59 1011.5
20260507234530 15 34 6.4 24.1 0.00 0.71 0.15 58 1011.0
20260507233004 15 352 6.4 43.5 0.00 0.79 0.15 59 1010.8
20260507231508 15 277 6.4 27.4 0.00 0.81 0.15 59 1010.5
20260507230017 16 325 6.4 24.1 0.00 0.84 0.15 60 1010.5
20260507224519 16 360 6.4 19.3 0.00 0.84 0.15 62 1010.6
20260507223024 16 308 4.8 14.5 0.00 0.84 0.15 61 1010.3
20260507221506 17 329 6.4 17.7 0.00 0.86 0.15 60 1010.0
20260507220013 17 63 4.8 22.5 0.00 0.86 0.15 64 1009.7
20260507214517 18 13 6.4 16.1 0.00 0.86 0.15 61 1009.5
20260507213028 19 220 6.4 27.4 0.00 0.86 0.15 59 1009.4
20260507211528 20 336 6.4 20.9 0.00 0.86 0.15 59 1009.3
20260507210010 20 352 1.6 12.9 0.00 0.86 0.15 60 1009.2
20260507204513 20 360 4.8 17.7 0.00 0.86 0.15 58 1009.2
20260507203019 20 337 6.4 20.9 0.00 0.86 0.15 58 1009.0
20260507201522 21 29 6.4 22.5 0.00 0.86 0.15 57 1009.0
20260507200025 22 26 3.2 12.9 0.00 0.86 0.15 58 1008.8
20260507194528 22 311 4.8 20.9 0.00 0.86 0.15 58 1008.8
20260507193017 22 251 4.8 14.5 0.00 0.86 0.15 57 1008.5
20260507191522 22 57 3.2 24.1 0.00 0.86 0.15 57 1008.7
20260507190040 23 308 3.2 12.9 0.00 0.86 0.15 57 1009.0